Total_Precipitation_Accumulation
0.00 0.00 0.00 0.04 0.19 0.32 0.44 0.38 0.29 0.16 0.22 0.22 0.24 0.24 0.27 0.29 0.28 0.20 0.05 0.01 0.00 0.00 0.01 0.05 0.11 0.11 0.08 0.07 0.07 0.09 0.10 0.11 0.11 0.11 0.11 0.10 0.07 0.04 0.03 0.02 0.01 0.01 0.02 0.02 0.01 0.02 0.02 0.02 0.01
0.00 0.00 0.00 0.03 0.15 0.35 0.44 0.38 0.27 0.20 0.24 0.28 0.41 0.40 0.28 0.20 0.18 0.10 0.03 0.01 0.00 0.00 0.01 0.02 0.07 0.09 0.08 0.07 0.06 0.07 0.08 0.08 0.08 0.08 0.08 0.08 0.06 0.03 0.02 0.02 0.01 0.02 0.02 0.02 0.02 0.02 0.02 0.01 0.01
0.00 0.00 0.01 0.02 0.08 0.18 0.23 0.16 0.16 0.22 0.31 0.40 0.45 0.42 0.29 0.20 0.13 0.07 0.03 0.01 0.01 0.01 0.01 0.02 0.06 0.07 0.08 0.09 0.08 0.07 0.06 0.06 0.06 0.06 0.06 0.06 0.05 0.03 0.02 0.02 0.02 0.03 0.05 0.05 0.04 0.04 0.04 0.02 0.01
0.00 0.00 0.01 0.02 0.02 0.04 0.06 0.10 0.16 0.27 0.46 0.69 0.67 0.44 0.22 0.16 0.11 0.07 0.03 0.01 0.01 0.01 0.01 0.04 0.07 0.07 0.07 0.07 0.07 0.07 0.07 0.07 0.07 0.07 0.06 0.06 0.05 0.04 0.04 0.04 0.04 0.06 0.09 0.09 0.10 0.09 0.06 0.03 0.02
0.00 0.01 0.01 0.01 0.02 0.02 0.04 0.11 0.21 0.34 0.49 0.67 0.69 0.45 0.26 0.20 0.15 0.10 0.04 0.03 0.02 0.02 0.02 0.04 0.09 0.09 0.08 0.08 0.10 0.09 0.08 0.08 0.08 0.07 0.08 0.07 0.06 0.06 0.06 0.06 0.06 0.07 0.09 0.10 0.11 0.12 0.09 0.05 0.02
0.00 0.00 0.00 0.01 0.01 0.02 0.06 0.13 0.23 0.34 0.48 0.61 0.81 0.62 0.34 0.26 0.24 0.17 0.08 0.05 0.03 0.03 0.03 0.06 0.11 0.13 0.13 0.11 0.12 0.12 0.09 0.09 0.10 0.10 0.10 0.10 0.09 0.10 0.11 0.11 0.10 0.09 0.10 0.11 0.13 0.13 0.12 0.09 0.06
0.00 0.00 0.00 0.00 0.01 0.04 0.06 0.12 0.23 0.36 0.47 0.69 0.93 0.77 0.41 0.27 0.27 0.24 0.15 0.09 0.06 0.05 0.05 0.07 0.10 0.12 0.13 0.16 0.17 0.16 0.14 0.13 0.13 0.14 0.13 0.11 0.11 0.13 0.14 0.17 0.18 0.17 0.16 0.15 0.16 0.17 0.18 0.16 0.12
0.00 0.00 0.00 0.00 0.01 0.04 0.10 0.15 0.27 0.45 0.57 0.74 0.89 0.82 0.67 0.41 0.31 0.30 0.23 0.15 0.13 0.10 0.07 0.08 0.12 0.16 0.16 0.18 0.19 0.19 0.17 0.17 0.17 0.17 0.16 0.15 0.16 0.19 0.25 0.27 0.26 0.26 0.27 0.28 0.30 0.31 0.34 0.34 0.27
0.00 0.00 0.00 0.00 0.01 0.09 0.13 0.17 0.23 0.32 0.46 0.63 0.78 0.74 0.60 0.41 0.42 0.48 0.42 0.27 0.20 0.15 0.15 0.15 0.17 0.18 0.21 0.23 0.24 0.29 0.30 0.33 0.34 0.38 0.37 0.32 0.30 0.38 0.50 0.47 0.47 0.49 0.55 0.61 0.67 0.67 0.69 0.66 0.51
0.00 0.00 0.00 0.00 0.00 0.05 0.11 0.15 0.23 0.30 0.61 1.04 1.05 0.72 0.49 0.53 0.59 0.65 0.62 0.48 0.34 0.25 0.24 0.25 0.25 0.28 0.30 0.32 0.53 0.64 0.63 0.75 0.68 0.76 0.72 0.69 0.68 0.58 0.44 0.53 0.69 0.82 1.03 1.13 1.20 1.26 1.26 1.12 0.86
0.00 0.00 0.00 0.00 0.01 0.01 0.04 0.10 0.18 0.35 0.73 1.23 1.35 0.97 0.77 0.75 0.81 0.72 0.74 0.72 0.62 0.51 0.39 0.33 0.38 0.39 0.41 0.52 0.75 0.87 0.90 0.99 0.96 1.01 1.07 1.15 1.14 0.94 0.81 0.94 1.15 1.28 1.44 1.48 1.68 1.82 1.51 1.43 1.37
0.00 0.00 0.00 0.00 0.01 0.01 0.08 0.15 0.23 0.28 0.62 0.92 0.83 0.70 0.75 0.81 0.87 0.86 0.84 0.89 0.79 0.72 0.67 0.64 0.69 0.68 0.70 0.81 0.85 0.90 0.85 0.90 0.96 1.08 1.22 1.35 1.31 1.32 1.28 1.31 1.38 1.50 1.65 1.81 1.92 1.94 1.87 1.94 1.87
0.00 0.00 0.00 0.01 0.02 0.03 0.09 0.12 0.21 0.33 0.42 0.53 0.50 0.58 0.85 0.94 0.99 0.96 0.91 0.92 0.99 1.08 1.10 1.05 1.00 0.95 0.87 0.79 0.77 0.74 0.71 0.72 0.81 0.91 0.98 1.07 1.28 1.41 1.41 1.26 1.23 1.27 1.49 1.76 2.04 2.08 2.28 2.33 2.07
0.00 0.00 0.00 0.01 0.02 0.03 0.06 0.08 0.17 0.35 0.41 0.53 0.63 0.69 0.89 1.09 1.17 1.15 1.19 1.31 1.57 1.60 1.54 1.46 1.30 1.12 1.03 0.93 0.82 0.76 0.68 0.70 0.73 0.74 0.81 0.97 1.10 1.26 1.22 1.20 1.25 1.28 1.29 1.41 1.76 1.98 2.17 2.08 1.84
0.00 0.02 0.03 0.03 0.02 0.03 0.04 0.13 0.30 0.45 0.65 0.67 0.79 0.85 0.98 1.30 1.46 1.59 1.71 1.93 2.28 2.43 2.08 1.68 1.41 1.20 1.08 1.05 0.95 0.84 0.74 0.69 0.69 0.65 0.70 0.79 0.86 0.97 1.01 1.01 1.00 1.05 1.06 1.09 1.23 1.40 1.55 1.48 1.35
0.01 0.06 0.15 0.07 0.03 0.05 0.09 0.37 0.57 0.48 0.77 1.06 0.95 1.08 1.32 1.61 1.75 1.94 2.21 2.59 3.00 3.13 2.67 1.98 1.68 1.63 1.48 1.31 0.99 0.78 0.69 0.59 0.52 0.49 0.50 0.53 0.56 0.58 0.61 0.61 0.59 0.63 0.62 0.66 0.76 0.85 0.94 1.00 1.07
0.02 0.05 0.13 0.15 0.08 0.07 0.16 0.52 0.69 0.50 0.62 0.89 1.06 1.23 1.53 1.74 1.79 1.86 2.06 2.51 3.08 3.50 3.27 2.58 2.34 2.34 1.76 1.12 0.77 0.60 0.50 0.40 0.36 0.37 0.35 0.37 0.39 0.40 0.44 0.43 0.42 0.40 0.39 0.39 0.41 0.50 0.60 0.68 0.75
0.02 0.03 0.08 0.19 0.14 0.14 0.22 0.41 0.66 0.68 0.82 1.02 1.11 1.19 1.40 1.47 1.44 1.56 1.62 1.66 2.24 2.63 2.44 2.20 2.11 1.73 1.14 0.67 0.47 0.34 0.28 0.24 0.21 0.25 0.27 0.28 0.31 0.33 0.36 0.34 0.33 0.30 0.28 0.29 0.34 0.39 0.42 0.42 0.46
0.02 0.03 0.07 0.13 0.14 0.21 0.34 0.44 0.61 0.74 0.94 1.09 1.10 1.03 1.02 1.08 1.13 1.17 1.15 1.03 1.17 1.28 1.18 1.21 1.10 0.93 0.58 0.39 0.25 0.17 0.15 0.14 0.13 0.16 0.16 0.19 0.23 0.28 0.34 0.29 0.32 0.29 0.24 0.24 0.26 0.30 0.30 0.28 0.29
0.03 0.05 0.10 0.13 0.13 0.18 0.32 0.56 0.68 0.74 0.76 0.84 0.91 0.85 0.81 0.84 0.84 0.75 0.69 0.73 0.67 0.69 0.69 0.64 0.62 0.48 0.29 0.20 0.16 0.14 0.12 0.08 0.07 0.07 0.09 0.09 0.12 0.17 0.23 0.30 0.25 0.25 0.25 0.25 0.24 0.27 0.25 0.22 0.24
0.04 0.05 0.06 0.10 0.10 0.17 0.31 0.75 0.81 0.69 0.61 0.56 0.65 0.69 0.62 0.61 0.54 0.43 0.39 0.38 0.49 0.65 0.57 0.38 0.34 0.26 0.17 0.12 0.11 0.10 0.10 0.10 0.09 0.08 0.07 0.08 0.07 0.09 0.14 0.21 0.24 0.27 0.24 0.27 0.32 0.30 0.27 0.21 0.19
0.03 0.03 0.02 0.02 0.06 0.28 0.38 0.77 0.83 0.67 0.66 0.51 0.47 0.48 0.36 0.28 0.28 0.28 0.25 0.25 0.31 0.39 0.37 0.30 0.27 0.24 0.14 0.10 0.09 0.08 0.07 0.08 0.08 0.07 0.06 0.07 0.06 0.07 0.08 0.10 0.15 0.22 0.26 0.33 0.26 0.29 0.30 0.25 0.19
0.01 0.01 0.01 0.03 0.07 0.18 0.30 0.63 0.80 0.59 0.67 0.47 0.29 0.19 0.11 0.09 0.11 0.15 0.15 0.15 0.14 0.15 0.19 0.22 0.29 0.32 0.21 0.15 0.11 0.10 0.08 0.07 0.07 0.07 0.07 0.08 0.10 0.11 0.12 0.12 0.11 0.12 0.19 0.26 0.29 0.35 0.32 0.32 0.27
0.01 0.01 0.07 0.14 0.18 0.37 0.40 0.42 0.68 0.47 0.35 0.20 0.12 0.07 0.04 0.04 0.05 0.08 0.09 0.09 0.09 0.10 0.11 0.14 0.22 0.28 0.22 0.17 0.14 0.16 0.15 0.13 0.12 0.11 0.11 0.14 0.17 0.19 0.19 0.20 0.20 0.19 0.17 0.17 0.19 0.24 0.30 0.35 0.36
0.01 0.02 0.15 0.31 0.44 0.54 0.27 0.43 0.73 0.35 0.19 0.09 0.06 0.03 0.02 0.02 0.02 0.04 0.06 0.06 0.06 0.06 0.06 0.06 0.10 0.14 0.13 0.11 0.11 0.16 0.24 0.30 0.31 0.26 0.22 0.20 0.21 0.23 0.23 0.22 0.24 0.27 0.27 0.25 0.20 0.16 0.20 0.28 0.33
0.01 0.01 0.03 0.06 0.13 0.23 0.26 0.82 0.65 0.18 0.09 0.05 0.02 0.02 0.02 0.01 0.01 0.01 0.03 0.04 0.02 0.02 0.02 0.03 0.04 0.03 0.03 0.04 0.06 0.07 0.12 0.18 0.26 0.32 0.30 0.30 0.32 0.27 0.23 0.21 0.22 0.26 0.30 0.31 0.28 0.22 0.20 0.22 0.26
0.01 0.00 0.01 0.01 0.03 0.13 0.35 0.51 0.26 0.07 0.03 0.02 0.01 0.01 0.01 0.00 0.00 0.00 0.01 0.01 0.00 0.00 0.00 0.01 0.01 0.01 0.01 0.01 0.01 0.02 0.02 0.04 0.06 0.10 0.14 0.21 0.31 0.30 0.24 0.20 0.19 0.22 0.25 0.30 0.31 0.30 0.29 0.27 0.24
0.02 0.01 0.01 0.01 0.03 0.09 0.24 0.40 0.35 0.11 0.04 0.02 0.01 0.01 0.00 0.00 0.00 0.00 0.00 0.00 0.00 0.00 0.00 0.00 0.00 0.00 0.00 0.01 0.00 0.00 0.01 0.01 0.03 0.04 0.04 0.06 0.11 0.15 0.15 0.15 0.15 0.17 0.19 0.23 0.29 0.34 0.40 0.42 0.38
0.02 0.01 0.01 0.01 0.02 0.03 0.11 0.18 0.15 0.08 0.06 0.02 0.01 0.00 0.00 0.00 0.00 0.00 0.00 0.00 0.00 0.00 0.00 0.00 0.00 0.00 0.00 0.00 0.00 0.00 0.00 0.00 0.00 0.01 0.01 0.02 0.02 0.03 0.04 0.06 0.08 0.10 0.12 0.15 0.21 0.27 0.38 0.51 0.59
0.02 0.01 0.01 0.02 0.02 0.02 0.03 0.04 0.04 0.04 0.04 0.02 0.01 0.00 0.01 0.00 0.00 0.00 0.00 0.00 0.00 0.00 0.00 0.00 0.00 0.00 0.00 0.00 0.00 0.01 0.00 0.00 0.00 0.00 0.00 0.00 0.01 0.01 0.01 0.02 0.02 0.03 0.04 0.07 0.11 0.17 0.24 0.37 0.53